Weather History for Baker, MT

Change the Weather History Date:

Wednesday, September 11, 2013

  Actual Average Record
Temperature  
Mean Temperature 66 °F -  
Max Temperature 84 °F 91 °F 89 °F (2011)
Min Temperature 50 °F 47 °F 30 °F (2014)
Cooling Degree Days 1    
Growing Degree Days 16 (Base 50)    
Moisture  
Dew Point 47 °F    
Average Humidity 55    
Maximum Humidity 80    
Minimum Humidity 26    
Precipitation  
Precipitation 0.00 in - - ()
Sea Level Pressure  
Sea Level Pressure 30.18 in    
Wind  
Wind Speed 3 mph (NE)    
Max Wind Speed 14 mph    
Max Gust Speed 17 mph    
Visibility 10 miles    
Events      
Averages and records for this station are not official NWS values.
T = Trace of Precipitation, MM = Missing Value Source: NWS Daily Summary

Daily Weather History Graph

Daily Weather History Graph

Search for Another Location

Airport:

Trip Planner

Search our weather history database for the weather conditions in past years. The results will help you decide how hot, cold, wet, or windy it might be!

Date:

Astronomy

Sep. 11, 2013 Rise Set
Actual Time 6:30 AM MDT 7:15 PM MDT
Civil Twilight 5:59 AM MDT 7:46 PM MDT
Nautical Twilight 5:23 AM MDT 8:22 PM MDT
Astronomical Twilight 4:45 AM MDT 9:00 PM MDT
Moon 1:23 PM MDT (9/11) 10:51 PM MDT (9/11)
Length of Visible Light 13h 46m
Length of Day
12h 45m
Waxing Crescent, 39% of the Moon is Illuminated
Sep 11
Waxing Crescent
Sep 12
First Quarter
Sep 19
Full
Sep 26
Last Quarter
Oct 4
New

Hourly Weather History & Observations

Time (MDT) Temp. Dew Point Humidity Pressure Visibility Wind Dir Wind Speed Gust Speed Precip Events Conditions
12:51 AM 57.9 °F 46.0 °F 65% 30.09 in 10.0 mi Calm Calm - N/A   Clear
1:51 AM 54.0 °F 46.0 °F 75% 30.10 in 10.0 mi Calm Calm - N/A   Clear
2:51 AM 53.1 °F 45.0 °F 74% 30.11 in 10.0 mi Calm Calm - N/A   Clear
3:51 AM 52.0 °F 45.0 °F 77% 30.12 in 10.0 mi Calm Calm - N/A   Clear
4:51 AM 53.1 °F 46.0 °F 77% 30.12 in 10.0 mi Calm Calm - N/A   Clear
5:51 AM 52.0 °F 46.0 °F 80% 30.14 in 10.0 mi Calm Calm - N/A   Clear
6:51 AM 50.0 °F 44.1 °F 80% 30.16 in 10.0 mi SSE 3.5 mph - N/A   Clear
7:51 AM 55.9 °F 50.0 °F 80% 30.17 in 10.0 mi Calm Calm - N/A   Clear
8:51 AM 66.9 °F 52.0 °F 59% 30.17 in 10.0 mi Calm Calm - N/A   Clear
9:51 AM 73.0 °F 48.9 °F 42% 30.17 in 10.0 mi West 4.6 mph - N/A   Clear
10:51 AM 75.9 °F 48.9 °F 38% 30.17 in 10.0 mi Variable 5.8 mph - N/A   Clear
11:51 AM 80.1 °F 48.0 °F 32% 30.17 in 10.0 mi Variable 5.8 mph - N/A   Clear
12:51 PM - - N/A% 30.22 in - North - - N/A   Clear
1:51 PM - - N/A% 30.22 in - North - - N/A   Clear
2:51 PM 82.9 °F 45.0 °F 26% 30.17 in 10.0 mi NE 4.6 mph 17.3 mph N/A   Scattered Clouds
3:51 PM 82.9 °F 46.0 °F 27% 30.16 in 10.0 mi North 13.8 mph - N/A   Partly Cloudy
4:42 PM 78.8 °F 48.2 °F 34% 30.22 in 10.0 mi NE 12.7 mph - N/A   Mostly Cloudy
4:51 PM 79.0 °F 48.0 °F 34% 30.17 in 10.0 mi NE 13.8 mph - N/A   Scattered Clouds
5:51 PM 78.1 °F 46.9 °F 33% 30.19 in 10.0 mi NE 11.5 mph - N/A   Clear
6:51 PM 73.0 °F 48.0 °F 41% 30.21 in 10.0 mi NE 8.1 mph - N/A   Clear
7:51 PM 66.0 °F 46.9 °F 50% 30.23 in 10.0 mi NE 6.9 mph - N/A   Clear
8:51 PM 63.0 °F 45.0 °F 52% 30.25 in 10.0 mi ENE 3.5 mph - N/A   Clear
9:51 PM 62.1 °F 45.0 °F 53% 30.25 in 10.0 mi ENE 5.8 mph - N/A   Clear
10:51 PM 55.0 °F 45.0 °F 69% 30.26 in 10.0 mi ESE 3.5 mph - N/A   Clear
11:51 PM 54.0 °F 45.0 °F 72% 30.27 in 10.0 mi Variable 3.5 mph - N/A   Clear